Theta_e
283 282 283 283 285 285 285 287 283 282 281 285 288 289 290 290 290 290 289 288 289 289 289 289 286 283 281 280 279 279 277 277 277 278 278 278 278 278 278 278 278 279 279 280
278 283 282 282 284 286 287 286 286 285 282 288 291 291 291 293 294 289 288 288 288 288 288 288 287 285 282 280 279 279 277 277 277 277 277 277 277 277 277 277 278 278 278 279
278 279 281 277 278 283 284 285 287 283 289 292 291 292 293 294 289 287 286 287 288 287 287 286 285 285 282 279 278 277 277 277 277 277 277 277 277 276 277 276 278 277 277 278
271 271 272 280 280 285 285 285 288 286 288 290 292 293 290 290 288 287 287 288 287 286 285 283 280 280 278 277 277 277 276 276 276 276 276 276 276 276 276 277 276 276 277 277
270 264 274 277 280 281 282 283 286 287 289 287 285 283 284 287 287 288 287 287 286 284 281 278 277 276 276 275 275 275 275 275 275 276 276 276 276 275 275 276 276 276 277 276
258 265 266 276 281 284 283 278 285 287 287 286 282 280 287 284 285 285 285 283 282 277 275 274 273 275 275 274 273 273 274 274 275 276 276 275 275 276 276 276 276 277 275 275
262 264 272 279 281 283 274 278 282 284 286 282 282 286 283 282 282 283 282 280 274 274 275 274 272 273 272 271 272 272 273 274 274 274 275 275 275 276 276 276 275 274 272 272
271 267 271 281 279 280 282 281 282 282 282 282 282 280 281 281 281 281 279 276 276 273 272 270 272 273 272 271 271 271 272 272 272 272 275 275 275 275 275 273 271 270 269 269
279 280 282 280 281 282 282 283 282 281 281 282 281 280 280 280 280 281 280 275 272 272 270 268 269 271 270 269 270 270 271 270 270 272 274 275 274 273 273 272 270 269 268 266
278 279 281 281 281 281 282 283 281 280 281 280 281 280 280 280 280 279 275 274 271 269 269 268 268 271 269 269 270 270 269 270 271 272 273 273 274 273 272 270 269 268 265 264
276 275 278 280 282 283 284 280 280 280 281 281 280 280 280 280 279 277 276 271 270 270 270 269 267 267 266 269 270 269 270 271 272 272 272 271 271 271 270 267 268 264 260 262
278 279 281 284 281 281 281 282 282 280 278 277 279 280 277 278 277 275 273 268 268 268 267 266 266 265 265 268 270 270 270 271 271 271 270 269 269 268 273 272 274 273 271 265
281 273 276 275 272 273 279 280 279 279 279 279 276 277 272 275 270 271 267 268 269 269 267 264 265 265 266 269 270 271 271 271 270 269 268 266 266 266 265 267 274 273 272 271
276 276 277 273 282 275 273 277 274 272 273 275 278 270 272 272 264 268 269 268 265 264 264 265 266 267 269 271 271 271 271 270 269 268 267 265 264 262 263 264 260 255 265 267
281 279 283 279 271 272 269 266 271 276 275 272 268 271 266 269 269 269 264 264 265 266 266 268 268 268 270 271 271 270 269 268 266 265 262 261 258 257 256 255 255 250 249 258
273 273 273 274 280 281 271 264 270 277 270 274 270 268 270 270 266 268 267 268 267 266 267 267 267 267 269 270 269 268 267 265 263 259 256 255 256 255 252 252 250 250 250 251
273 277 267 268 272 276 274 278 276 276 275 270 271 270 268 268 265 267 268 268 269 267 266 267 267 265 266 267 266 264 263 260 258 254 256 255 255 255 254 251 251 250 252 249
274 279 273 274 273 271 273 272 275 273 272 273 269 268 267 267 268 264 263 265 263 261 263 263 262 262 262 263 264 261 259 256 255 255 252 252 252 252 252 252 251 251 248 247
259 265 262 263 262 264 266 267 267 269 264 266 266 267 267 265 263 261 262 262 260 260 260 257 265 261 259 258 258 258 256 254 252 248 249 250 249 248 249 250 250 249 248 250
260 258 257 257 257 257 263 260 260 263 261 261 261 261 259 258 261 261 262 262 262 262 259 259 262 258 256 259 260 256 256 255 254 250 250 250 251 249 249 250 250 250 248 249
266 265 263 261 261 256 256 254 255 258 257 257 261 261 262 259 259 259 258 260 260 253 257 259 257 256 255 256 255 255 255 254 254 252 251 251 251 250 250 250 250 251 250 249
257 258 257 254 253 257 256 253 254 254 255 255 255 257 258 258 256 256 255 260 256 255 257 258 257 255 256 257 255 254 254 253 253 252 251 251 251 252 252 252 251 251 251 251
256 253 253 251 252 255 252 251 254 253 255 256 257 257 259 260 259 259 260 258 256 257 258 258 257 257 258 257 255 254 253 254 253 253 253 253 253 253 253 253 253 253 251 251
252 252 252 247 246 248 255 256 253 254 253 253 255 256 257 256 254 254 252 256 257 260 258 257 260 261 257 256 255 254 254 254 254 254 253 253 253 252 252 253 253 252 252 253
255 253 248 248 251 257 255 251 249 249 250 252 254 255 257 255 262 260 253 254 259 258 257 260 262 261 256 256 255 255 255 255 255 254 254 253 253 253 253 253 254 254 254 255
250 255 257 256 258 256 255 250 255 253 253 254 254 254 253 253 252 254 256 255 256 257 257 258 259 260 257 256 256 256 255 255 255 255 254 254 254 254 254 254 255 256 257 257
250 250 249 252 253 254 253 254 255 257 255 257 259 254 255 254 253 254 255 255 256 257 256 258 258 260 258 257 257 256 256 256 256 256 255 255 255 255 256 256 258 258 258 258
Wind_Speed
1 2 2 5 9 10 18 15 11 6 9 9 8 8 7 6 5 4 5 4 5 6 6 6 6 6 6 7 8 7 7 6 6 5 5 5 5 5 5 5 5 5 5 6
2 2 3 5 10 12 14 7 9 2 5 5 8 7 4 5 11 7 8 8 7 7 6 6 6 5 5 6 7 8 7 6 6 6 6 5 6 6 6 6 5 6 6 6
4 3 3 10 9 11 7 6 11 14 15 8 10 14 17 15 9 10 10 8 7 6 5 3 4 5 5 6 7 8 8 8 8 8 7 6 6 6 6 5 6 6 5 5
3 3 6 3 2 8 14 10 16 5 7 11 16 14 6 11 8 8 8 8 7 5 4 2 1 1 3 6 7 9 8 9 8 8 7 7 7 7 6 5 5 5 5 5
6 4 7 4 6 10 11 17 15 14 14 5 3 3 7 8 8 10 8 7 5 4 2 0 1 3 5 4 5 7 8 8 8 9 9 9 9 8 6 6 6 5 5 5
3 6 10 7 4 8 6 12 9 15 14 10 7 3 14 6 8 9 8 4 6 4 2 3 4 6 6 6 6 7 7 8 8 8 9 9 8 8 7 6 6 5 6 5
3 4 10 9 7 7 7 7 5 10 11 9 8 10 3 6 5 4 5 7 4 5 6 5 4 5 5 6 9 6 7 8 7 7 7 7 7 5 8 7 7 6 7 4
4 1 15 9 5 14 6 3 6 7 8 9 8 5 4 6 5 6 7 5 6 5 5 5 6 6 6 7 5 6 7 7 6 6 6 7 9 7 8 9 8 6 6 3
12 11 1 7 4 7 3 6 6 6 6 8 7 8 8 7 8 9 7 5 5 6 6 5 5 6 7 6 8 8 9 8 7 7 7 8 8 8 7 7 6 6 5 3
4 3 6 5 5 3 8 9 2 4 6 7 7 7 7 8 7 6 5 8 6 7 8 8 7 7 5 9 9 10 10 10 8 8 7 7 5 6 6 6 6 5 5 4
8 2 4 5 9 10 13 2 3 3 6 8 7 8 8 7 9 9 9 6 8 11 9 9 8 7 7 9 10 9 9 9 9 7 7 7 5 5 5 2 7 6 4 5
8 8 7 6 5 4 7 9 9 8 5 6 8 11 6 10 8 6 8 5 6 7 6 6 8 7 7 9 11 11 10 8 8 7 7 6 6 4 9 10 11 10 13 9
6 5 6 5 4 4 7 9 9 8 9 8 6 8 5 7 5 6 5 7 9 11 8 7 9 9 9 10 10 11 10 10 7 8 7 7 7 7 8 5 14 13 13 11
5 4 6 6 10 5 4 7 4 5 6 7 11 3 6 7 3 7 9 8 5 6 7 9 9 10 11 11 11 10 9 12 8 8 7 7 7 5 6 8 5 1 4 2
14 10 12 6 2 4 3 3 6 11 8 7 7 9 6 8 9 8 4 5 6 7 7 9 10 10 11 11 11 11 9 8 7 6 5 6 5 5 4 4 4 3 2 0
2 7 6 7 18 15 7 5 9 14 7 10 8 9 12 9 4 5 6 8 8 9 9 10 9 9 10 11 11 9 7 11 8 7 5 5 5 6 4 4 4 4 3 4
3 12 2 7 9 15 13 12 12 13 9 8 11 7 7 7 4 5 6 7 6 6 8 9 9 10 10 10 10 6 6 6 9 6 6 6 7 7 5 5 5 5 5 4
8 11 4 8 7 7 8 7 8 9 8 8 5 7 7 10 11 8 7 7 6 5 6 6 10 9 9 9 9 7 7 7 6 7 5 5 5 5 5 5 5 5 3 3
3 5 4 6 6 6 6 6 6 5 3 4 6 10 9 7 5 5 7 7 6 6 6 4 12 11 9 7 9 7 7 8 6 3 4 5 4 4 4 5 4 4 3 4
5 4 4 4 3 3 6 4 6 6 5 4 4 5 5 5 7 7 8 10 9 5 10 9 10 9 9 10 11 7 8 8 8 5 5 5 5 6 5 5 5 5 5 5
8 5 7 4 5 4 6 4 5 4 3 2 5 6 6 6 7 8 7 7 7 5 7 11 8 7 7 7 8 7 7 7 7 8 7 7 5 5 5 5 5 6 6 5
4 5 6 4 4 6 4 4 4 4 3 4 2 4 5 6 4 3 1 4 4 10 7 7 7 10 9 12 7 7 7 7 6 6 5 5 6 6 7 6 7 7 6 6
5 4 5 4 5 6 5 4 5 4 4 4 6 6 6 5 6 7 7 6 4 9 7 7 10 14 15 9 7 8 8 8 8 8 7 7 7 7 6 7 7 6 6 6
4 5 6 3 1 2 7 5 5 6 5 4 4 4 5 4 1 2 0 7 11 12 7 8 11 16 14 7 7 8 8 8 8 7 6 7 6 6 6 6 7 6 5 6
6 5 4 4 5 8 6 4 3 3 4 4 5 5 5 3 6 5 5 4 9 10 7 11 15 16 9 8 9 9 8 8 8 7 7 7 7 8 7 7 7 7 7 7
4 6 6 8 7 4 4 4 5 3 4 5 4 4 4 3 2 3 5 6 7 8 7 8 9 11 9 10 9 9 9 8 8 8 8 8 8 8 8 8 8 8 8 8
4 3 2 5 5 6 5 5 5 8 7 6 7 4 7 5 5 4 6 7 6 7 7 8 9 11 9 9 9 9 8 8 10 9 8 8 8 8 9 8 8 8 8 8
Wind_Direction
181 347 174 206 192 191 217 226 218 197 197 208 203 210 202 216 227 222 282 299 262 260 266 263 252 228 207 191 181 167 163 160 156 139 139 135 125 116 113 104 100 95 87 90
338 36 2 254 218 217 226 220 228 281 269 236 232 117 190 262 280 257 255 246 242 242 253 271 275 260 212 196 182 166 161 155 142 142 146 146 136 134 128 123 112 101 86 86
217 348 53 282 194 197 198 184 199 225 229 209 231 228 218 229 203 221 228 234 231 228 222 233 288 282 231 180 150 157 156 153 158 157 153 147 135 129 129 122 113 96 84 92
153 49 233 253 314 205 200 203 211 218 208 197 220 237 218 213 206 206 221 225 221 206 194 209 281 268 134 146 158 162 164 162 156 151 146 144 145 141 136 133 124 113 99 93
150 190 301 273 194 169 174 240 216 212 227 203 145 74 273 211 200 216 211 211 185 158 156 255 179 145 133 131 144 158 163 161 160 157 155 156 156 152 141 133 129 131 121 87
114 150 213 245 207 150 103 260 222 201 224 209 128 216 252 178 198 211 196 169 174 152 142 166 186 154 145 157 156 167 164 165 162 161 162 163 154 152 147 140 141 130 113 91
174 215 282 234 177 148 147 241 195 174 207 148 184 212 209 157 179 176 180 178 141 167 199 203 162 148 165 167 190 171 145 147 151 156 153 146 143 144 150 139 122 117 100 80
108 125 262 160 82 172 199 193 143 183 198 189 213 156 211 190 171 176 192 199 192 189 205 187 185 167 177 193 155 142 139 136 138 142 147 148 150 146 140 130 127 120 114 103
190 210 201 196 184 208 185 161 212 196 193 193 193 204 192 218 234 225 217 199 184 199 202 208 192 181 181 186 148 146 141 140 142 145 153 156 154 148 141 136 136 139 145 135
99 245 210 222 251 249 208 230 185 112 161 164 198 206 206 214 231 238 220 212 178 183 209 215 196 198 192 159 156 155 153 151 153 159 152 148 144 143 142 150 149 148 143 159
268 197 330 258 236 229 242 124 96 168 204 216 201 229 218 233 236 224 220 188 183 198 207 211 183 191 171 160 157 159 158 155 156 156 155 140 128 144 147 130 161 154 163 163
228 192 175 254 221 168 228 244 222 203 241 229 196 231 198 236 232 208 219 171 188 202 200 189 182 179 170 165 165 161 161 162 161 151 146 139 134 125 158 158 165 167 163 155
227 192 201 235 241 207 198 224 223 205 225 251 236 222 196 235 217 211 206 190 200 204 194 167 178 179 174 171 166 170 167 160 151 151 151 146 151 148 150 156 155 150 152 159
224 109 301 190 247 198 217 247 221 240 242 223 246 197 216 226 188 201 209 212 169 166 172 175 179 183 173 173 172 170 162 159 156 157 155 150 159 154 149 150 146 57 17 139
232 196 233 275 320 235 203 145 227 241 237 237 218 240 188 230 233 222 163 177 164 165 174 175 180 182 170 169 167 157 150 157 150 147 143 146 134 133 130 126 146 139 14 340
209 203 231 241 258 264 196 206 227 253 217 243 221 214 223 222 204 169 165 169 161 189 180 180 181 162 160 159 154 149 143 147 144 143 141 135 139 145 145 150 153 178 192 206
276 266 215 260 245 257 238 245 230 244 245 218 224 212 184 189 160 169 180 179 182 158 169 175 171 156 160 155 153 142 134 139 142 131 154 159 160 171 165 158 177 192 209 201
236 259 233 230 237 241 256 237 239 234 225 228 185 172 174 181 203 182 171 153 127 127 166 158 146 149 153 153 147 141 142 146 150 160 142 147 164 153 164 172 180 189 210 241
246 269 279 263 258 264 281 275 256 263 267 185 167 195 197 196 165 143 140 148 159 173 212 146 166 155 154 148 136 138 142 143 143 135 144 135 139 161 167 178 188 198 187 207
269 249 246 260 228 221 275 277 300 291 273 175 146 140 154 162 150 148 162 187 189 184 151 163 160 159 151 167 147 145 147 155 161 153 153 163 169 178 185 188 191 196 199 210
301 304 293 280 281 261 243 249 252 244 248 193 174 194 190 165 164 151 159 193 202 170 151 158 159 153 154 149 147 148 153 156 163 166 170 180 174 176 188 196 200 205 211 211
270 273 274 270 264 287 273 264 272 279 194 182 198 146 154 186 167 178 264 194 147 155 154 165 166 160 160 155 154 160 162 166 168 158 168 172 182 187 201 199 207 212 213 214
262 251 277 253 246 260 307 284 259 236 227 209 195 192 197 189 175 170 216 188 155 168 163 172 164 162 160 164 166 168 171 175 178 183 186 185 192 197 201 205 211 207 207 214
240 242 241 242 184 325 276 257 225 233 224 220 214 190 157 155 283 214 332 161 158 174 174 162 171 171 164 168 169 177 184 186 187 189 186 183 193 196 203 205 212 208 211 214
233 243 219 205 225 243 241 246 278 248 240 245 226 216 208 207 199 179 168 175 173 171 168 176 178 176 175 178 184 190 190 190 192 187 189 194 200 206 208 206 213 211 216 217
226 235 235 218 230 212 212 173 231 222 199 233 239 208 204 208 184 147 164 169 174 174 173 175 184 182 183 188 190 190 190 189 189 195 195 201 201 203 206 209 213 214 218 217
261 239 285 279 238 233 220 203 219 241 213 215 233 189 192 183 188 177 169 174 181 183 179 183 186 190 188 189 191 192 194 196 197 197 199 202 203 208 208 210 214 215 214 212